Weather Roundup
Issued by NWS

Home | Current Version | Previous Version | Text Only | Print | Product List | Glossary On
Versions: 1 2 3 4 5 6 7 8 9 10 11 12 13 14 15 16 17 18 19 20 21 22 23 24 25 26 27 28 29 30 31 32 33 34 35 36 37 38 39 40 41 42 43 44 45 46 47 48 49 50
000
NZUS93 KARX 220210
HRRWXR

CURRENT HOURLY OBSERVATIONS ACROSS
MUCH OF THE UPPER MISSISSIPPI VALLEY
NATIONAL WEATHER SERVICE LA CROSSE WI
900 PM CDT MON AUG 21 2017


...SOUTHEAST MINNESOTA...


CITY           SKY/WX    TMP DP  RH WIND       PRES   REMARKS
ROCHESTER      CLOUDY    64  64 100 W10       29.92R
ROCHESTER/MAYO MOCLDY    65  64  95 W10G17    29.92R
WINONA         CLOUDY    68  64  88 CALM      29.86R
AUSTIN         CLOUDY    64  63  94 SW8       29.90R
ALBERT LEA     CLOUDY    66  66 100 CALM      29.92R
DODGE CENTER   CLOUDY    64  61  88 W8        29.92R
PRESTON        CLOUDY    64  62  94 SW8       29.89R
OWATONNA       CLOUDY    64  63  94 W6        29.92R
FARIBAULT      CLOUDY    66  64  94 SW10G16   29.91R
$$

...ELSEWHERE IN MINNESOTA...


CITY           SKY/WX    TMP DP  RH WIND       PRES   REMARKS
MINNEAPOLIS    CLOUDY    69  63  81 SW8       29.86F
INTNL FALLS    NOT AVBL
DULUTH         LGT RAIN  60  60 100 CALM      29.82F
RED WING       CLOUDY    68  64  88 W5        29.86R
REDWOOD FALLS  CLOUDY    69  63  81 W10       29.92R
MANKATO        CLOUDY    66  63  90 W14       29.92R
WORTHINGTON    CLOUDY    65  63  93 W9        29.97F
FAIRMONT       CLOUDY    66  63  90 W12       29.94R
$$

...SOUTHWEST WISCONSIN...


CITY           SKY/WX    TMP DP  RH WIND       PRES   REMARKS
LA CROSSE      CLOUDY    70  66  87 SW7       29.81F
PRAIRIE DU CHI CLOUDY    68  65  90 E8        29.83F
BOSCOBEL       LGT RAIN  70  67  90 SE3       29.89F
LONE ROCK      LGT RAIN  72  68  87 VRB3      29.91F
PLATTEVILLE    CLOUDY    72  72 100 SW8       29.98R
FORT MC COY    CLOUDY    64  64  97 CALM      29.82F
CAMP DOUGLAS   LGT RAIN  68  66  94 SE10      29.83F
MAUSTON-NEW LI LGT RAIN  69  66  91 S12       29.84F
VIROQUA        FAIR      65  65 100 SE8       29.82F
WIS DELLS      CLOUDY    72  64  78 W3        29.91S
$$

...ELSEWHERE IN WISCONSIN...


CITY           SKY/WX    TMP DP  RH WIND       PRES   REMARKS
MILWAUKEE      MOCLDY    78  69  73 SW10      29.92F
MADISON        MOCLDY    74  67  78 S5        29.91F
GREEN BAY      MOCLDY    74  71  91 S6        29.87F
EAU CLAIRE     CLOUDY    69  62  78 NW5       29.85S
BLACK RVR FLS  FAIR      66  66 100 NW5       29.84R
MEDFORD        CLOUDY    66  64  93 SW5       29.87S
WAUSAU         CLOUDY    70  64  81 S8        29.83F
WIS RAPIDS     LGT RAIN  68  65  90 S7        29.85F
MARSHFIELD     CLOUDY    66  63  90 NW5       29.83F
RICE LAKE      MOCLDY    65  62  89 CALM      29.86F
$$

...NORTHEAST IOWA...


CITY           SKY/WX    TMP DP  RH WIND       PRES   REMARKS
WATERLOO       CLOUDY    65  63  93 S5        29.88S
DUBUQUE        CLOUDY    71  68  90 W8        29.99R
DECORAH        CLOUDY    64  63  94 CALM      29.85R
MASON CITY     NOT AVBL
CHARLES CITY   CLOUDY    64  64 100 S5        29.89S
OELWEIN        CLOUDY    66  64  94 SE9       29.89R
$$

...ELSEWHERE IN IOWA...


CITY           SKY/WX    TMP DP  RH WIND       PRES   REMARKS
DES MOINES     CLOUDY    66  64  93 SE9       29.93F
IOWA CITY      LGT RAIN  72  68  87 N9        29.96F
FORT DODGE     MOCLDY    64  61  88 NW6       29.97R
MARSHALLTOWN   MOCLDY    66  65  96 SE6       29.91F
CEDAR RAPIDS   LGT RAIN  67  66  97 NE7       29.93F
$$

...NORTHERN ILLINOIS...


CITY           SKY/WX    TMP DP  RH WIND       PRES   REMARKS
CHICAGO-OHARE  CLOUDY    79  66  64 SW7G16    29.95F
CHICAGO-MIDWAY CLOUDY    78  71  79 SW7       29.96F
MOLINE         CLOUDY    76  71  85 VRB7      29.95F
ROCKFORD       CLOUDY    73  70  90 S7        29.95F
PEORIA         CLOUDY    77  74  90 S8        29.97F
$$

NOTE: "FAIR" INDICATES FEW OR NO CLOUDS BELOW 12,000 FEET WITH NO
SIGNIFICANT WEATHER AND/OR OBSTRUCTIONS TO VISIBILITY. WIND
SPEEDS ARE IN MILES-PER-HOUR.




USA.gov is the U.S. government's official web portal to all federal, state and local government web resources and services.